Hatchet Mtn Atmospheric Data: 04/18/2019 Summary  Detailed Graphs  Station List

  Temperature     Wind Precipitation Visibility
Timestamp Air Wet
Bulb
Dew-
point
24-hr
Max
24-hr
Min
Relative
Humidity
Atmospheric
Pressure
Avg
Speed
Avg
Dir
Spot
Speed
Spot
Dir
Max
Speed
Max
Dir
  Rate Situation Start End 1 hr 3 hr 6 hr 12 hr 24 hr   Situation
Date Time °F °F °F °F °F % in Hg mph ° mph ° mph ° Y/N in/hr text Date Time Date Time in in in in in mi text
04/18/2019 12:00 AM 46.22 42.98 39.56 65.48 33.08 77.0 Not Reported 0.00 N 0.00 NE 0.00 SE No 0.000 No Precipitation 04/16/2019 05:03 AM 04/16/2019 05:08 AM 0.000 0.000 0.000 0.000 0.000 Not Reported Not Reported
04/18/2019 12:05 AM 46.04 42.80 39.74 65.48 33.08 78.0 Not Reported 0.00 N 0.00 SW 0.00 SE No 0.000 No Precipitation 04/16/2019 05:03 AM 04/16/2019 05:08 AM 0.000 0.000 0.000 0.000 0.000 Not Reported Not Reported
04/18/2019 12:10 AM 45.86 42.80 39.38 65.48 33.08 78.0 Not Reported 0.00 N 0.00 SW 0.00 NE No 0.000 No Precipitation 04/16/2019 05:03 AM 04/16/2019 05:08 AM 0.000 0.000 0.000 0.000 0.000 Not Reported Not Reported
04/18/2019 12:15 AM 45.68 42.80 39.56 65.48 33.08 79.0 Not Reported 0.00 N 0.00 SW 0.00 NE No 0.000 No Precipitation 04/16/2019 05:03 AM 04/16/2019 05:08 AM 0.000 0.000 0.000 0.000 0.000 Not Reported Not Reported
04/18/2019 12:20 AM 45.50 42.62 39.56 65.48 33.08 79.0 Not Reported 0.00 N 0.00 W 0.00 SW No 0.000 No Precipitation 04/16/2019 05:03 AM 04/16/2019 05:08 AM 0.000 0.000 0.000 0.000 0.000 Not Reported Not Reported
04/18/2019 12:25 AM 45.68 42.80 39.74 65.48 33.08 79.0 Not Reported 0.22 SW 0.67 W 0.00 SW No 0.000 No Precipitation 04/16/2019 05:03 AM 04/16/2019 05:08 AM 0.000 0.000 0.000 0.000 0.000 Not Reported Not Reported
04/18/2019 12:30 AM 45.50 42.62 39.56 65.48 33.08 79.0 Not Reported 0.45 NW 0.00 NW 0.67 W No 0.000 No Precipitation 04/16/2019 05:03 AM 04/16/2019 05:08 AM 0.000 0.000 0.000 0.000 0.000 Not Reported Not Reported
04/18/2019 12:35 AM 45.32 42.44 39.38 65.48 33.08 79.0 Not Reported 0.00 NW 0.00 NW 0.67 W No 0.000 No Precipitation 04/16/2019 05:03 AM 04/16/2019 05:08 AM 0.000 0.000 0.000 0.000 0.000 Not Reported Not Reported
04/18/2019 12:40 AM 45.50 42.62 39.74 65.48 33.08 80.0 Not Reported 0.00 N 0.00 SW 0.45 NW No 0.000 No Precipitation 04/16/2019 05:03 AM 04/16/2019 05:08 AM 0.000 0.000 0.000 0.000 0.000 Not Reported Not Reported
04/18/2019 12:45 AM 45.32 42.62 39.56 65.48 33.08 80.0 Not Reported 0.00 S 0.45 SE 0.45 NW No 0.000 No Precipitation 04/16/2019 05:03 AM 04/16/2019 05:08 AM 0.000 0.000 0.000 0.000 0.000 Not Reported Not Reported
04/18/2019 12:50 AM 45.14 42.62 39.56 65.48 33.08 80.0 Not Reported 0.45 SE 0.00 NE 0.67 SE No 0.000 No Precipitation 04/16/2019 05:03 AM 04/16/2019 05:08 AM 0.000 0.000 0.000 0.000 0.000 Not Reported Not Reported
04/18/2019 12:55 AM 45.14 42.44 39.74 65.48 33.08 81.0 Not Reported 0.00 N 0.00 E 0.67 SE No 0.000 No Precipitation 04/16/2019 05:03 AM 04/16/2019 05:08 AM 0.000 0.000 0.000 0.000 0.000 Not Reported Not Reported
04/18/2019 01:00 AM 45.14 42.62 39.74 65.48 33.08 81.0 Not Reported 0.00 N 0.00 E 0.22 SE No 0.000 No Precipitation 04/16/2019 05:03 AM 04/16/2019 05:08 AM 0.000 0.000 0.000 0.000 0.000 Not Reported Not Reported
04/18/2019 01:05 AM 44.96 42.44 39.56 65.48 33.08 81.0 Not Reported 0.00 N 0.00 E 0.22 SE No 0.000 No Precipitation 04/16/2019 05:03 AM 04/16/2019 05:08 AM 0.000 0.000 0.000 0.000 0.000 Not Reported Not Reported
04/18/2019 01:10 AM 44.96 42.44 39.56 65.48 33.08 81.0 Not Reported 0.00 N 0.00 W 0.00 E No 0.000 No Precipitation 04/16/2019 05:03 AM 04/16/2019 05:08 AM 0.000 0.000 0.000 0.000 0.000 Not Reported Not Reported
04/18/2019 01:15 AM 45.14 42.44 39.74 65.48 33.08 81.0 Not Reported 0.00 N 0.00 SW 0.00 E No 0.000 No Precipitation 04/16/2019 05:03 AM 04/16/2019 05:08 AM 0.000 0.000 0.000 0.000 0.000 Not Reported Not Reported
04/18/2019 01:20 AM 45.14 42.44 39.56 65.48 33.08 81.0 Not Reported 0.22 SW 0.22 W 0.22 SW No 0.000 No Precipitation 04/16/2019 05:03 AM 04/16/2019 05:08 AM 0.000 0.000 0.000 0.000 0.000 Not Reported Not Reported
04/18/2019 01:25 AM 44.78 42.26 39.38 65.48 33.08 81.0 Not Reported 0.00 W 0.22 NW 0.22 SW No 0.000 No Precipitation 04/16/2019 05:03 AM 04/16/2019 05:08 AM 0.000 0.000 0.000 0.000 0.000 Not Reported Not Reported
04/18/2019 01:30 AM 44.78 42.26 39.56 65.48 33.08 81.0 Not Reported 0.45 NW 0.22 NW 0.67 NW No 0.000 No Precipitation 04/16/2019 05:03 AM 04/16/2019 05:08 AM 0.000 0.000 0.000 0.000 0.000 Not Reported Not Reported
04/18/2019 01:35 AM 44.60 42.26 39.38 65.48 33.08 81.0 Not Reported 0.45 NW 0.67 W 0.67 NW No 0.000 No Precipitation 04/16/2019 05:03 AM 04/16/2019 05:08 AM 0.000 0.000 0.000 0.000 0.000 Not Reported Not Reported
04/18/2019 01:40 AM 44.78 42.26 39.56 65.48 33.08 81.0 Not Reported 0.45 W 0.00 SW 0.67 W No 0.000 No Precipitation 04/16/2019 05:03 AM 04/16/2019 05:08 AM 0.000 0.000 0.000 0.000 0.000 Not Reported Not Reported
04/18/2019 01:45 AM 44.60 42.26 39.38 65.48 33.08 81.0 Not Reported 0.22 SW 0.00 S 0.67 W No 0.000 No Precipitation 04/16/2019 05:03 AM 04/16/2019 05:08 AM 0.000 0.000 0.000 0.000 0.000 Not Reported Not Reported
04/18/2019 01:50 AM 44.60 42.08 39.38 65.48 33.08 82.0 Not Reported 0.00 N 0.22 E 0.67 S No 0.000 No Precipitation 04/16/2019 05:03 AM 04/16/2019 05:08 AM 0.000 0.000 0.000 0.000 0.000 Not Reported Not Reported
04/18/2019 01:55 AM 44.24 42.08 39.38 65.48 33.08 83.0 Not Reported 0.67 E 0.45 E 0.67 S No 0.000 No Precipitation 04/16/2019 05:03 AM 04/16/2019 05:08 AM 0.000 0.000 0.000 0.000 0.000 Not Reported Not Reported
04/18/2019 02:00 AM 44.24 41.90 39.38 65.48 33.08 83.0 Not Reported 0.89 E 0.67 E 0.89 E No 0.000 No Precipitation 04/16/2019 05:03 AM 04/16/2019 05:08 AM 0.000 0.000 0.000 0.000 0.000 Not Reported Not Reported
04/18/2019 02:05 AM 44.24 41.90 39.56 65.48 33.08 83.0 Not Reported 0.45 E 0.67 S 0.89 E No 0.000 No Precipitation 04/16/2019 05:03 AM 04/16/2019 05:08 AM 0.000 0.000 0.000 0.000 0.000 Not Reported Not Reported
04/18/2019 02:10 AM 44.42 42.08 39.56 65.48 33.08 83.0 Not Reported 0.22 SE 0.67 E 1.12 SE No 0.000 No Precipitation 04/16/2019 05:03 AM 04/16/2019 05:08 AM 0.000 0.000 0.000 0.000 0.000 Not Reported Not Reported
04/18/2019 02:15 AM 44.42 42.08 39.38 65.48 33.08 82.0 Not Reported 0.45 E 0.45 E 1.12 SE No 0.000 No Precipitation 04/16/2019 05:03 AM 04/16/2019 05:08 AM 0.000 0.000 0.000 0.000 0.000 Not Reported Not Reported
04/18/2019 02:20 AM 44.60 42.08 39.38 65.48 33.08 82.0 Not Reported 0.67 E 0.00 E 0.89 SE No 0.000 No Precipitation 04/16/2019 05:03 AM 04/16/2019 05:08 AM 0.000 0.000 0.000 0.000 0.000 Not Reported Not Reported
04/18/2019 02:25 AM 44.60 42.08 39.38 65.48 33.08 81.0 Not Reported 0.00 E 0.22 E 0.89 SE No 0.000 No Precipitation 04/16/2019 05:03 AM 04/16/2019 05:08 AM 0.000 0.000 0.000 0.000 0.000 Not Reported Not Reported
04/18/2019 02:30 AM 44.60 42.08 39.38 65.48 33.08 81.0 Not Reported 0.00 E 0.67 E 0.89 E No 0.000 No Precipitation 04/16/2019 05:03 AM 04/16/2019 05:08 AM 0.000 0.000 0.000 0.000 0.000 Not Reported Not Reported
04/18/2019 02:35 AM 44.78 42.26 39.56 65.48 33.08 81.0 Not Reported 0.45 SE 0.67 E 0.89 E No 0.000 No Precipitation 04/16/2019 05:03 AM 04/16/2019 05:08 AM 0.000 0.000 0.000 0.000 0.000 Not Reported Not Reported
04/18/2019 02:40 AM 44.60 42.08 39.38 65.48 33.08 81.0 Not Reported 0.45 SE 0.45 E 1.12 N No 0.000 No Precipitation 04/16/2019 05:03 AM 04/16/2019 05:08 AM 0.000 0.000 0.000 0.000 0.000 Not Reported Not Reported
04/18/2019 02:45 AM 44.42 41.90 39.38 65.48 33.08 82.0 Not Reported 0.67 E 0.00 NE 1.12 N No 0.000 No Precipitation 04/16/2019 05:03 AM 04/16/2019 05:08 AM 0.000 0.000 0.000 0.000 0.000 Not Reported Not Reported
04/18/2019 02:50 AM 44.60 42.26 39.56 65.48 33.08 81.0 Not Reported 0.00 N 0.00 S 1.12 SE No 0.000 No Precipitation 04/16/2019 05:03 AM 04/16/2019 05:08 AM 0.000 0.000 0.000 0.000 0.000 Not Reported Not Reported
04/18/2019 02:55 AM 44.60 42.08 39.20 65.48 33.08 81.0 Not Reported 0.22 SE 0.67 SE 1.12 SE No 0.000 No Precipitation 04/16/2019 05:03 AM 04/16/2019 05:08 AM 0.000 0.000 0.000 0.000 0.000 Not Reported Not Reported
04/18/2019 03:00 AM 44.24 41.90 39.20 65.48 33.08 82.0 Not Reported 1.12 SE 0.45 S 1.57 SE No 0.000 No Precipitation 04/16/2019 05:03 AM 04/16/2019 05:08 AM 0.000 0.000 0.000 0.000 0.000 Not Reported Not Reported
04/18/2019 03:05 AM 44.24 41.72 39.02 65.48 33.08 82.0 Not Reported 0.45 SE 0.45 SE 1.57 SE No 0.000 No Precipitation 04/16/2019 05:03 AM 04/16/2019 05:08 AM 0.000 0.000 0.000 0.000 0.000 Not Reported Not Reported
04/18/2019 03:10 AM 44.24 41.72 39.02 65.48 33.08 81.0 Not Reported 0.67 S 0.89 E 1.57 SE No 0.000 No Precipitation 04/16/2019 05:03 AM 04/16/2019 05:08 AM 0.000 0.000 0.000 0.000 0.000 Not Reported Not Reported
04/18/2019 03:15 AM 43.88 41.36 38.84 65.48 33.08 82.0 Not Reported 1.12 SE 0.00 SE 1.57 SE No 0.000 No Precipitation 04/16/2019 05:03 AM 04/16/2019 05:08 AM 0.000 0.000 0.000 0.000 0.000 Not Reported Not Reported
04/18/2019 03:20 AM 44.06 41.54 38.84 65.48 33.08 81.0 Not Reported 0.45 E 1.57 E 1.34 S No 0.000 No Precipitation 04/16/2019 05:03 AM 04/16/2019 05:08 AM 0.000 0.000 0.000 0.000 0.000 Not Reported Not Reported
04/18/2019 03:25 AM 44.24 41.72 38.66 65.48 33.08 80.0 Not Reported 1.57 S 0.45 NE 1.34 S No 0.000 No Precipitation 04/16/2019 05:03 AM 04/16/2019 05:08 AM 0.000 0.000 0.000 0.000 0.000 Not Reported Not Reported
04/18/2019 03:30 AM 44.42 41.72 38.66 65.48 33.08 80.0 Not Reported 1.12 SE 0.89 SE 2.01 SE No 0.000 No Precipitation 04/16/2019 05:03 AM 04/16/2019 05:08 AM 0.000 0.000 0.000 0.000 0.000 Not Reported Not Reported
04/18/2019 03:35 AM 44.78 41.90 38.66 65.48 33.08 79.0 Not Reported 2.01 SE 0.89 E 2.01 SE No 0.000 No Precipitation 04/16/2019 05:03 AM 04/16/2019 05:08 AM 0.000 0.000 0.000 0.000 0.000 Not Reported Not Reported
04/18/2019 03:40 AM 44.42 41.72 38.48 65.48 33.08 79.0 Not Reported 0.89 SE 0.00 SE 2.91 NE No 0.000 No Precipitation 04/16/2019 05:03 AM 04/16/2019 05:08 AM 0.000 0.000 0.000 0.000 0.000 Not Reported Not Reported
04/18/2019 03:45 AM 44.24 41.54 38.48 65.48 33.08 79.0 Not Reported 0.89 E 1.12 E 2.91 NE No 0.000 No Precipitation 04/16/2019 05:03 AM 04/16/2019 05:08 AM 0.000 0.000 0.000 0.000 0.000 Not Reported Not Reported
04/18/2019 03:50 AM 44.06 41.54 38.66 65.48 33.08 80.0 Not Reported 0.45 E 1.34 S 1.79 SE No 0.000 No Precipitation 04/16/2019 05:03 AM 04/16/2019 05:08 AM 0.000 0.000 0.000 0.000 0.000 Not Reported Not Reported
04/18/2019 03:55 AM 43.88 41.36 38.48 65.48 33.08 81.0 Not Reported 1.12 SE 1.34 SE 1.79 SE No 0.000 No Precipitation 04/16/2019 05:03 AM 04/16/2019 05:08 AM 0.000 0.000 0.000 0.000 0.000 Not Reported Not Reported
04/18/2019 04:00 AM 43.70 41.36 38.48 65.48 33.08 81.0 Not Reported 1.34 E 1.57 SE 1.79 NE No 0.000 No Precipitation 04/16/2019 05:03 AM 04/16/2019 05:08 AM 0.000 0.000 0.000 0.000 0.000 Not Reported Not Reported
04/18/2019 04:05 AM 43.34 41.00 38.48 65.48 33.08 82.0 Not Reported 1.34 E 1.12 E 1.79 NE No 0.000 No Precipitation 04/16/2019 05:03 AM 04/16/2019 05:08 AM 0.000 0.000 0.000 0.000 0.000 Not Reported Not Reported
04/18/2019 04:10 AM 43.34 41.18 38.66 65.48 33.08 83.0 Not Reported 1.12 E 0.22 E 2.01 SE No 0.000 No Precipitation 04/16/2019 05:03 AM 04/16/2019 05:08 AM 0.000 0.000 0.000 0.000 0.000 Not Reported Not Reported
04/18/2019 04:15 AM 43.34 41.00 38.48 65.48 33.08 83.0 Not Reported 0.22 E 0.00 SE 2.01 SE No 0.000 No Precipitation 04/16/2019 05:03 AM 04/16/2019 05:08 AM 0.000 0.000 0.000 0.000 0.000 Not Reported Not Reported
04/18/2019 04:20 AM 43.16 41.00 38.48 65.48 33.08 83.0 Not Reported 0.45 SE 1.34 SE 0.89 SE No 0.000 No Precipitation 04/16/2019 05:03 AM 04/16/2019 05:08 AM 0.000 0.000 0.000 0.000 0.000 Not Reported Not Reported
04/18/2019 04:25 AM 43.16 41.00 38.48 65.48 33.08 83.0 Not Reported 1.12 E 1.12 E 0.89 SE No 0.000 No Precipitation 04/16/2019 05:03 AM 04/16/2019 05:08 AM 0.000 0.000 0.000 0.000 0.000 Not Reported Not Reported
04/18/2019 04:30 AM 42.98 40.82 38.30 65.48 33.08 83.0 Not Reported 1.34 E 0.89 E 1.57 E No 0.000 No Precipitation 04/16/2019 05:03 AM 04/16/2019 05:08 AM 0.000 0.000 0.000 0.000 0.000 Not Reported Not Reported
04/18/2019 04:35 AM 42.80 40.64 38.30 65.48 33.08 83.0 Not Reported 0.89 E 0.45 E 1.57 E No 0.000 No Precipitation 04/16/2019 05:03 AM 04/16/2019 05:08 AM 0.000 0.000 0.000 0.000 0.000 Not Reported Not Reported
04/18/2019 04:40 AM 42.80 40.82 38.30 65.48 33.08 83.0 Not Reported 0.45 E 0.89 E 1.12 E No 0.000 No Precipitation 04/16/2019 05:03 AM 04/16/2019 05:08 AM 0.000 0.000 0.000 0.000 0.000 Not Reported Not Reported
04/18/2019 04:45 AM 42.80 40.82 38.30 65.48 33.08 84.0 Not Reported 0.89 E 1.12 E 1.12 E No 0.000 No Precipitation 04/16/2019 05:03 AM 04/16/2019 05:08 AM 0.000 0.000 0.000 0.000 0.000 Not Reported Not Reported
04/18/2019 04:50 AM 42.80 40.64 38.30 65.48 33.08 84.0 Not Reported 0.89 E 1.34 E 1.34 E No 0.000 No Precipitation 04/16/2019 05:03 AM 04/16/2019 05:08 AM 0.000 0.000 0.000 0.000 0.000 Not Reported Not Reported
04/18/2019 04:55 AM 42.80 40.64 38.30 65.48 33.08 83.0 Not Reported 1.12 E 0.89 E 1.34 E No 0.000 No Precipitation 04/16/2019 05:03 AM 04/16/2019 05:08 AM 0.000 0.000 0.000 0.000 0.000 Not Reported Not Reported
04/18/2019 05:00 AM 42.98 40.82 38.30 65.48 33.08 83.0 Not Reported 0.67 E 1.12 SE 1.34 E No 0.000 No Precipitation 04/16/2019 05:03 AM 04/16/2019 05:08 AM 0.000 0.000 0.000 0.000 0.000 Not Reported Not Reported
04/18/2019 05:05 AM 43.16 41.00 38.48 65.48 33.08 83.0 Not Reported 1.34 E 1.57 SE 1.34 E No 0.000 No Precipitation 04/16/2019 05:03 AM 04/16/2019 05:08 AM 0.000 0.000 0.000 0.000 0.000 Not Reported Not Reported
04/18/2019 05:10 AM 43.16 40.82 38.30 65.48 33.08 82.0 Not Reported 1.34 SE 2.24 SE 1.79 E No 0.000 No Precipitation 04/16/2019 05:03 AM 04/16/2019 05:08 AM 0.000 0.000 0.000 0.000 0.000 Not Reported Not Reported
04/18/2019 05:15 AM 43.16 40.82 38.30 65.48 33.08 82.0 Not Reported 1.12 SE 0.67 E 1.79 E No 0.000 No Precipitation 04/16/2019 05:03 AM 04/16/2019 05:08 AM 0.000 0.000 0.000 0.000 0.000 Not Reported Not Reported
04/18/2019 05:20 AM 43.34 41.00 38.30 65.48 33.08 82.0 Not Reported 1.79 SE 1.12 E 2.46 SE No 0.000 No Precipitation 04/16/2019 05:03 AM 04/16/2019 05:08 AM 0.000 0.000 0.000 0.000 0.000 Not Reported Not Reported
04/18/2019 05:25 AM 43.16 41.00 38.30 65.48 33.08 82.0 Not Reported 2.24 SE 1.34 E 2.46 SE No 0.000 No Precipitation 04/16/2019 05:03 AM 04/16/2019 05:08 AM 0.000 0.000 0.000 0.000 0.000 Not Reported Not Reported
04/18/2019 05:30 AM 43.16 40.82 38.30 65.48 33.08 82.0 Not Reported 1.34 E 1.34 E 2.46 SE No 0.000 No Precipitation 04/16/2019 05:03 AM 04/16/2019 05:08 AM 0.000 0.000 0.000 0.000 0.000 Not Reported Not Reported
04/18/2019 05:35 AM 43.16 40.82 38.12 65.48 33.08 82.0 Not Reported 0.67 SE 1.79 S 2.46 SE No 0.000 No Precipitation 04/16/2019 05:03 AM 04/16/2019 05:08 AM 0.000 0.000 0.000 0.000 0.000 Not Reported Not Reported
04/18/2019 05:40 AM 43.34 41.00 38.12 65.48 33.08 81.0 Not Reported 1.34 SE 2.01 SE 2.01 E No 0.000 No Precipitation 04/16/2019 05:03 AM 04/16/2019 05:08 AM 0.000 0.000 0.000 0.000 0.000 Not Reported Not Reported
04/18/2019 05:45 AM 43.34 41.00 38.30 65.48 33.08 82.0 Not Reported 1.12 E 1.34 E 2.01 E No 0.000 No Precipitation 04/16/2019 05:03 AM 04/16/2019 05:08 AM 0.000 0.000 0.000 0.000 0.000 Not Reported Not Reported
04/18/2019 05:50 AM 43.34 40.82 38.12 65.48 33.08 82.0 Not Reported 0.89 E 0.89 E 2.01 SE No 0.000 No Precipitation 04/16/2019 05:03 AM 04/16/2019 05:08 AM 0.000 0.000 0.000 0.000 0.000 Not Reported Not Reported
04/18/2019 05:55 AM 43.16 40.82 37.94 65.48 33.08 82.0 Not Reported 0.89 E 0.67 E 2.01 SE No 0.000 No Precipitation 04/16/2019 05:03 AM 04/16/2019 05:08 AM 0.000 0.000 0.000 0.000 0.000 Not Reported Not Reported
04/18/2019 06:00 AM 42.98 40.64 38.12 65.48 33.08 82.0 Not Reported 1.12 E 1.12 E 1.34 SE No 0.000 No Precipitation 04/16/2019 05:03 AM 04/16/2019 05:08 AM 0.000 0.000 0.000 0.000 0.000 Not Reported Not Reported
04/18/2019 06:05 AM 42.62 40.46 37.94 65.48 33.08 83.0 Not Reported 0.67 SE 2.24 SE 1.34 SE No 0.000 No Precipitation 04/16/2019 05:03 AM 04/16/2019 05:08 AM 0.000 0.000 0.000 0.000 0.000 Not Reported Not Reported
04/18/2019 06:10 AM 42.80 40.46 38.12 65.48 33.08 83.0 Not Reported 1.79 SE 1.79 E 2.91 SE No 0.000 No Precipitation 04/16/2019 05:03 AM 04/16/2019 05:08 AM 0.000 0.000 0.000 0.000 0.000 Not Reported Not Reported
04/18/2019 06:15 AM 42.80 40.64 38.12 65.48 33.08 83.0 Not Reported 1.79 E 1.57 E 2.91 SE No 0.000 No Precipitation 04/16/2019 05:03 AM 04/16/2019 05:08 AM 0.000 0.000 0.000 0.000 0.000 Not Reported Not Reported
04/18/2019 06:20 AM 42.62 40.46 37.94 65.48 33.08 83.0 Not Reported 1.79 E 0.89 E 2.01 E No 0.000 No Precipitation 04/16/2019 05:03 AM 04/16/2019 05:08 AM 0.000 0.000 0.000 0.000 0.000 Not Reported Not Reported
04/18/2019 06:25 AM 42.26 40.28 37.76 65.48 33.08 84.0 Not Reported 0.89 E 0.67 E 2.01 E No 0.000 No Precipitation 04/16/2019 05:03 AM 04/16/2019 05:08 AM 0.000 0.000 0.000 0.000 0.000 Not Reported Not Reported
04/18/2019 06:30 AM 42.26 40.28 37.76 65.48 33.08 84.0 Not Reported 0.67 SE 0.22 SE 1.79 SE No 0.000 No Precipitation 04/16/2019 05:03 AM 04/16/2019 05:08 AM 0.000 0.000 0.000 0.000 0.000 Not Reported Not Reported
04/18/2019 06:35 AM 42.26 40.28 37.94 65.48 33.08 84.0 Not Reported 1.12 E 2.01 E 1.79 SE No 0.000 No Precipitation 04/16/2019 05:03 AM 04/16/2019 05:08 AM 0.000 0.000 0.000 0.000 0.000 Not Reported Not Reported
04/18/2019 06:40 AM 42.08 40.10 37.76 65.48 33.08 84.0 Not Reported 1.79 E 1.79 SE 2.01 E No 0.000 No Precipitation 04/16/2019 05:03 AM 04/16/2019 05:08 AM 0.000 0.000 0.000 0.000 0.000 Not Reported Not Reported
04/18/2019 06:45 AM 42.08 40.10 37.76 65.48 33.08 84.0 Not Reported 1.57 E 1.12 E 2.01 E No 0.000 No Precipitation 04/16/2019 05:03 AM 04/16/2019 05:08 AM 0.000 0.000 0.000 0.000 0.000 Not Reported Not Reported
04/18/2019 06:50 AM 42.08 40.28 37.94 65.48 33.08 84.0 Not Reported 1.12 E 1.57 SE 2.24 E No 0.000 No Precipitation 04/16/2019 05:03 AM 04/16/2019 05:08 AM 0.000 0.000 0.000 0.000 0.000 Not Reported Not Reported
04/18/2019 06:55 AM 42.26 40.10 37.94 65.48 33.08 84.0 Not Reported 2.01 E 1.79 E 2.24 E No 0.000 No Precipitation 04/16/2019 05:03 AM 04/16/2019 05:08 AM 0.000 0.000 0.000 0.000 0.000 Not Reported Not Reported
04/18/2019 07:00 AM 42.26 40.10 37.76 65.48 33.08 83.0 Not Reported 2.46 E 2.46 E 2.68 E No 0.000 No Precipitation 04/16/2019 05:03 AM 04/16/2019 05:08 AM 0.000 0.000 0.000 0.000 0.000 Not Reported Not Reported
04/18/2019 07:05 AM 42.44 40.46 37.94 65.48 33.08 83.0 Not Reported 1.34 SE 1.57 SE 2.68 E No 0.000 No Precipitation 04/16/2019 05:03 AM 04/16/2019 05:08 AM 0.000 0.000 0.000 0.000 0.000 Not Reported Not Reported
04/18/2019 07:10 AM 42.44 40.28 37.76 65.48 33.08 83.0 Not Reported 1.12 SE 1.34 N 3.13 E No 0.000 No Precipitation 04/16/2019 05:03 AM 04/16/2019 05:08 AM 0.000 0.000 0.000 0.000 0.000 Not Reported Not Reported
04/18/2019 07:15 AM 42.80 40.46 37.76 65.48 33.08 82.0 Not Reported 1.79 E 1.57 E 3.13 E No 0.000 No Precipitation 04/16/2019 05:03 AM 04/16/2019 05:08 AM 0.000 0.000 0.000 0.000 0.000 Not Reported Not Reported
04/18/2019 07:20 AM 42.44 40.10 37.40 65.48 33.08 82.0 Not Reported 2.01 E 1.12 E 3.36 E No 0.000 No Precipitation 04/16/2019 05:03 AM 04/16/2019 05:08 AM 0.000 0.000 0.000 0.000 0.000 Not Reported Not Reported
04/18/2019 07:25 AM 42.26 40.10 37.58 65.48 33.08 83.0 Not Reported 0.67 E 0.89 E 3.36 E No 0.000 No Precipitation 04/16/2019 05:03 AM 04/16/2019 05:08 AM 0.000 0.000 0.000 0.000 0.000 Not Reported Not Reported
04/18/2019 07:30 AM 42.26 40.10 37.58 65.48 33.08 83.0 Not Reported 0.89 SE 1.12 SE 1.79 SE No 0.000 No Precipitation 04/16/2019 05:03 AM 04/16/2019 05:08 AM 0.000 0.000 0.000 0.000 0.000 Not Reported Not Reported
04/18/2019 07:35 AM 42.44 40.28 37.76 65.48 33.08 83.0 Not Reported 1.34 E 1.57 E 1.79 SE No 0.000 No Precipitation 04/16/2019 05:03 AM 04/16/2019 05:08 AM 0.000 0.000 0.000 0.000 0.000 Not Reported Not Reported
04/18/2019 07:40 AM 42.44 40.28 37.58 65.48 33.08 83.0 Not Reported 2.01 E 2.24 E 2.46 E No 0.000 No Precipitation 04/16/2019 05:03 AM 04/16/2019 05:08 AM 0.000 0.000 0.000 0.000 0.000 Not Reported Not Reported
04/18/2019 07:45 AM 42.80 40.64 37.94 65.48 33.08 83.0 Not Reported 2.46 E 1.34 SE 2.46 E No 0.000 No Precipitation 04/16/2019 05:03 AM 04/16/2019 05:08 AM 0.000 0.000 0.000 0.000 0.000 Not Reported Not Reported
04/18/2019 07:50 AM 43.34 40.82 38.12 65.48 33.08 81.0 Not Reported 2.91 SE 3.80 NE 4.47 SE No 0.000 No Precipitation 04/16/2019 05:03 AM 04/16/2019 05:08 AM 0.000 0.000 0.000 0.000 0.000 Not Reported Not Reported
04/18/2019 07:55 AM 43.52 41.00 37.94 65.48 33.08 80.0 Not Reported 3.36 E 3.36 E 4.47 SE No 0.000 No Precipitation 04/16/2019 05:03 AM 04/16/2019 05:08 AM 0.000 0.000 0.000 0.000 0.000 Not Reported Not Reported
04/18/2019 08:00 AM 43.52 41.00 37.94 65.48 33.08 80.0 Not Reported 2.91 E 3.13 E 4.25 E No 0.000 No Precipitation 04/16/2019 05:03 AM 04/16/2019 05:08 AM 0.000 0.000 0.000 0.000 0.000 Not Reported Not Reported
04/18/2019 08:05 AM 43.70 41.00 38.30 65.48 33.08 80.0 Not Reported 2.24 E 3.13 E 4.25 E No 0.000 No Precipitation 04/16/2019 05:03 AM 04/16/2019 05:08 AM 0.000 0.000 0.000 0.000 0.000 Not Reported Not Reported
04/18/2019 08:10 AM 44.06 41.36 38.30 65.48 33.08 80.0 Not Reported 2.01 E 4.25 SE 4.25 E No 0.000 No Precipitation 04/16/2019 05:03 AM 04/16/2019 05:08 AM 0.000 0.000 0.000 0.000 0.000 Not Reported Not Reported
04/18/2019 08:15 AM 44.24 41.54 38.48 65.48 33.08 79.0 Not Reported 1.57 E 1.34 E 4.25 E No 0.000 No Precipitation 04/16/2019 05:03 AM 04/16/2019 05:08 AM 0.000 0.000 0.000 0.000 0.000 Not Reported Not Reported
04/18/2019 08:20 AM 44.96 42.08 38.84 65.48 33.08 79.0 Not Reported 2.24 E 2.24 E 4.25 SE No 0.000 No Precipitation 04/16/2019 05:03 AM 04/16/2019 05:08 AM 0.000 0.000 0.000 0.000 0.000 Not Reported Not Reported
04/18/2019 08:25 AM 45.14 42.26 39.02 65.48 33.08 78.0 Not Reported 3.13 E 4.92 E 4.25 SE No 0.000 No Precipitation 04/16/2019 05:03 AM 04/16/2019 05:08 AM 0.000 0.000 0.000 0.000 0.000 Not Reported Not Reported
04/18/2019 08:30 AM 45.68 42.44 39.20 65.48 33.08 77.0 Not Reported 3.80 E 3.36 E 5.82 SE No 0.000 No Precipitation 04/16/2019 05:03 AM 04/16/2019 05:08 AM 0.000 0.000 0.000 0.000 0.000 Not Reported Not Reported
04/18/2019 08:35 AM 46.58 42.98 39.56 65.48 33.08 76.0 Not Reported 3.80 E 5.37 SE 5.82 SE No 0.000 No Precipitation 04/16/2019 05:03 AM 04/16/2019 05:08 AM 0.000 0.000 0.000 0.000 0.000 Not Reported Not Reported
04/18/2019 08:40 AM 46.58 42.98 38.84 65.48 33.08 74.0 Not Reported 5.59 E 4.70 E 6.49 E No 0.000 No Precipitation 04/16/2019 05:03 AM 04/16/2019 05:08 AM 0.000 0.000 0.000 0.000 0.000 Not Reported Not Reported
04/18/2019 08:45 AM 46.94 43.16 39.02 65.48 33.08 73.0 Not Reported 5.37 E 5.14 E 6.49 E No 0.000 No Precipitation 04/16/2019 05:03 AM 04/16/2019 05:08 AM 0.000 0.000 0.000 0.000 0.000 Not Reported Not Reported
04/18/2019 08:50 AM 47.30 43.52 39.38 65.48 33.08 73.0 Not Reported 6.04 E 3.58 E 7.38 SE No 0.000 No Precipitation 04/16/2019 05:03 AM 04/16/2019 05:08 AM 0.000 0.000 0.000 0.000 0.000 Not Reported Not Reported
04/18/2019 08:55 AM 47.66 43.70 39.38 65.48 33.08 72.0 Not Reported 4.25 SE 6.49 E 7.38 SE No 0.000 No Precipitation 04/16/2019 05:03 AM 04/16/2019 05:08 AM 0.000 0.000 0.000 0.000 0.000 Not Reported Not Reported
04/18/2019 09:00 AM 47.48 43.34 38.84 65.48 33.08 71.0 Not Reported 4.03 E 8.50 E 6.93 SE No 0.000 No Precipitation 04/16/2019 05:03 AM 04/16/2019 05:08 AM 0.000 0.000 0.000 0.000 0.000 Not Reported Not Reported
04/18/2019 09:05 AM 47.66 44.06 40.10 65.48 33.08 74.0 Not Reported 5.82 SE 4.03 E 6.93 SE No 0.000 No Precipitation 04/16/2019 05:03 AM 04/16/2019 05:08 AM 0.000 0.000 0.000 0.000 0.000 Not Reported Not Reported
04/18/2019 09:10 AM 48.02 44.24 40.10 65.48 33.08 74.0 Not Reported 5.37 E 4.03 E 8.50 E No 0.000 No Precipitation 04/16/2019 05:03 AM 04/16/2019 05:08 AM 0.000 0.000 0.000 0.000 0.000 Not Reported Not Reported
04/18/2019 09:15 AM 48.38 43.88 39.02 65.48 33.08 69.0 Not Reported 4.70 E 4.70 E 8.50 E No 0.000 No Precipitation 04/16/2019 05:03 AM 04/16/2019 05:08 AM 0.000 0.000 0.000 0.000 0.000 Not Reported Not Reported
04/18/2019 09:20 AM 48.92 44.42 39.56 65.48 33.08 70.0 Not Reported 5.82 E 4.92 E 7.16 E No 0.000 No Precipitation 04/16/2019 05:03 AM 04/16/2019 05:08 AM 0.000 0.000 0.000 0.000 0.000 Not Reported Not Reported
04/18/2019 09:25 AM 49.10 44.06 38.48 65.48 33.08 66.0 Not Reported 4.70 E 6.93 E 7.16 E No 0.000 No Precipitation 04/16/2019 05:03 AM 04/16/2019 05:08 AM 0.000 0.000 0.000 0.000 0.000 Not Reported Not Reported
04/18/2019 09:30 AM 49.46 44.24 38.66 65.48 33.08 66.0 Not Reported 5.37 E 6.04 E 6.93 E No 0.000 No Precipitation 04/16/2019 05:03 AM 04/16/2019 05:08 AM 0.000 0.000 0.000 0.000 0.000 Not Reported Not Reported
04/18/2019 09:35 AM 49.82 44.42 38.84 65.48 33.08 65.0 Not Reported 5.82 E 4.25 E 6.93 E No 0.000 No Precipitation 04/16/2019 05:03 AM 04/16/2019 05:08 AM 0.000 0.000 0.000 0.000 0.000 Not Reported Not Reported
04/18/2019 09:40 AM 50.54 45.50 40.28 65.48 33.08 67.0 Not Reported 4.92 E 1.79 NE 7.83 E No 0.000 No Precipitation 04/16/2019 05:03 AM 04/16/2019 05:08 AM 0.000 0.000 0.000 0.000 0.000 Not Reported Not Reported
04/18/2019 09:45 AM 50.72 44.96 38.66 65.48 33.08 63.0 Not Reported 6.71 E 8.95 E 7.83 E No 0.000 No Precipitation 04/16/2019 05:03 AM 04/16/2019 05:08 AM 0.000 0.000 0.000 0.000 0.000 Not Reported Not Reported
04/18/2019 09:50 AM 51.26 45.32 38.84 65.48 33.08 62.0 Not Reported 6.71 E 7.16 E 8.95 E No 0.000 No Precipitation 04/16/2019 05:03 AM 04/16/2019 05:08 AM 0.000 0.000 0.000 0.000 0.000 Not Reported Not Reported
04/18/2019 09:55 AM 51.80 45.68 39.38 65.48 33.08 62.0 Not Reported 6.04 E 5.37 E 8.95 E No 0.000 No Precipitation 04/16/2019 05:03 AM 04/16/2019 05:08 AM 0.000 0.000 0.000 0.000 0.000 Not Reported Not Reported
04/18/2019 10:00 AM 51.98 45.86 39.38 65.48 33.08 62.0 Not Reported 5.37 E 8.72 NE 7.61 E No 0.000 No Precipitation 04/16/2019 05:03 AM 04/16/2019 05:08 AM 0.000 0.000 0.000 0.000 0.000 Not Reported Not Reported
04/18/2019 10:05 AM 52.16 46.04 39.92 65.48 33.08 62.0 Not Reported 5.59 E 7.16 E 7.61 E No 0.000 No Precipitation 04/16/2019 05:03 AM 04/16/2019 05:08 AM 0.000 0.000 0.000 0.000 0.000 Not Reported Not Reported
04/18/2019 10:10 AM 52.70 46.40 40.10 65.48 33.08 62.0 Not Reported 5.82 E 5.37 E 8.72 NE No 0.000 No Precipitation 04/16/2019 05:03 AM 04/16/2019 05:08 AM 0.000 0.000 0.000 0.000 0.000 Not Reported Not Reported
04/18/2019 10:15 AM 52.34 46.40 40.46 65.48 33.08 63.0 Not Reported 6.04 E 4.03 E 8.72 NE No 0.000 No Precipitation 04/16/2019 05:03 AM 04/16/2019 05:08 AM 0.000 0.000 0.000 0.000 0.000 Not Reported Not Reported
04/18/2019 10:20 AM 52.34 46.40 40.28 65.48 33.08 63.0 Not Reported 6.04 E 9.62 E 7.61 E No 0.000 No Precipitation 04/16/2019 05:03 AM 04/16/2019 05:08 AM 0.000 0.000 0.000 0.000 0.000 Not Reported Not Reported
04/18/2019 10:25 AM 52.70 46.76 40.64 65.48 33.08 63.0 Not Reported 6.04 E 4.03 SE 7.61 E No 0.000 No Precipitation 04/16/2019 05:03 AM 04/16/2019 05:08 AM 0.000 0.000 0.000 0.000 0.000 Not Reported Not Reported
04/18/2019 10:30 AM 53.42 47.12 40.82 65.48 33.08 62.0 Not Reported 6.26 SE 5.82 E 9.62 E No 0.000 No Precipitation 04/16/2019 05:03 AM 04/16/2019 05:08 AM 0.000 0.000 0.000 0.000 0.000 Not Reported Not Reported
04/18/2019 10:35 AM 53.96 47.30 40.64 65.48 33.08 60.0 Not Reported 5.14 E 6.04 E 9.62 E No 0.000 No Precipitation 04/16/2019 05:03 AM 04/16/2019 05:08 AM 0.000 0.000 0.000 0.000 0.000 Not Reported Not Reported
04/18/2019 10:40 AM 54.50 47.84 41.36 65.48 33.08 60.0 Not Reported 6.26 E 5.37 SE 7.83 SE No 0.000 No Precipitation 04/16/2019 05:03 AM 04/16/2019 05:08 AM 0.000 0.000 0.000 0.000 0.000 Not Reported Not Reported
04/18/2019 10:45 AM 54.68 47.66 40.46 65.48 33.08 58.0 Not Reported 6.04 E 6.04 E 7.83 SE No 0.000 No Precipitation 04/16/2019 05:03 AM 04/16/2019 05:08 AM 0.000 0.000 0.000 0.000 0.000 Not Reported Not Reported
04/18/2019 10:50 AM 54.86 46.94 39.02 65.48 33.08 55.0 Not Reported 6.26 E 6.49 E 7.83 SE No 0.000 No Precipitation 04/16/2019 05:03 AM 04/16/2019 05:08 AM 0.000 0.000 0.000 0.000 0.000 Not Reported Not Reported
04/18/2019 10:55 AM 54.50 46.76 39.02 65.48 33.08 55.0 Not Reported 6.49 E 5.82 E 7.83 SE No 0.000 No Precipitation 04/16/2019 05:03 AM 04/16/2019 05:08 AM 0.000 0.000 0.000 0.000 0.000 Not Reported Not Reported
04/18/2019 11:00 AM 54.68 46.94 39.02 65.48 33.08 55.0 Not Reported 6.26 E 5.59 E 7.16 E No 0.000 No Precipitation 04/16/2019 05:03 AM 04/16/2019 05:08 AM 0.000 0.000 0.000 0.000 0.000 Not Reported Not Reported
04/18/2019 11:05 AM 54.68 47.30 40.10 65.48 33.08 56.0 Not Reported 6.49 E 6.04 E 7.16 E No 0.000 No Precipitation 04/16/2019 05:03 AM 04/16/2019 05:08 AM 0.000 0.000 0.000 0.000 0.000 Not Reported Not Reported
04/18/2019 11:10 AM 55.40 48.02 40.64 65.48 33.08 57.0 Not Reported 5.59 E 6.04 E 8.05 E No 0.000 No Precipitation 04/16/2019 05:03 AM 04/16/2019 05:08 AM 0.000 0.000 0.000 0.000 0.000 Not Reported Not Reported
04/18/2019 11:15 AM 55.76 48.02 40.46 65.48 33.08 56.0 Not Reported 5.14 SE 5.37 SE 8.05 E No 0.000 No Precipitation 04/16/2019 05:03 AM 04/16/2019 05:08 AM 0.000 0.000 0.000 0.000 0.000 Not Reported Not Reported
04/18/2019 11:20 AM 56.30 48.56 41.00 65.48 33.08 56.0 Not Reported 5.82 E 6.04 NE 6.93 E No 0.000 No Precipitation 04/16/2019 05:03 AM 04/16/2019 05:08 AM 0.000 0.000 0.000 0.000 0.000 Not Reported Not Reported
04/18/2019 11:25 AM 57.20 49.10 41.18 65.48 33.08 55.0 Not Reported 5.37 E 6.93 E 6.93 E No 0.000 No Precipitation 04/16/2019 05:03 AM 04/16/2019 05:08 AM 0.000 0.000 0.000 0.000 0.000 Not Reported Not Reported
04/18/2019 11:30 AM 57.20 49.28 41.36 65.48 33.08 55.0 Not Reported 5.82 E 6.49 E 6.93 E No 0.000 No Precipitation 04/16/2019 05:03 AM 04/16/2019 05:08 AM 0.000 0.000 0.000 0.000 0.000 Not Reported Not Reported
04/18/2019 11:35 AM 57.74 49.28 41.36 65.48 33.08 54.0 Not Reported 4.70 E 2.91 E 6.93 E No 0.000 No Precipitation 04/16/2019 05:03 AM 04/16/2019 05:08 AM 0.000 0.000 0.000 0.000 0.000 Not Reported Not Reported
04/18/2019 11:40 AM 58.28 49.64 41.54 65.48 33.08 53.0 Not Reported 5.59 E 4.70 E 8.50 E No 0.000 No Precipitation 04/16/2019 05:03 AM 04/16/2019 05:08 AM 0.000 0.000 0.000 0.000 0.000 Not Reported Not Reported
04/18/2019 11:45 AM 58.10 49.46 41.18 65.48 33.08 52.0 Not Reported 5.37 E 6.04 E 8.50 E No 0.000 No Precipitation 04/16/2019 05:03 AM 04/16/2019 05:08 AM 0.000 0.000 0.000 0.000 0.000 Not Reported Not Reported
04/18/2019 11:50 AM 58.82 49.64 41.00 65.48 33.08 51.0 Not Reported 4.92 E 7.38 E 8.95 E No 0.000 No Precipitation 04/16/2019 05:03 AM 04/16/2019 05:08 AM 0.000 0.000 0.000 0.000 0.000 Not Reported Not Reported
04/18/2019 11:55 AM 58.82 49.82 41.18 65.48 33.08 51.0 Not Reported 4.47 E 7.16 E 8.95 E No 0.000 No Precipitation 04/16/2019 05:03 AM 04/16/2019 05:08 AM 0.000 0.000 0.000 0.000 0.000 Not Reported Not Reported
04/18/2019 12:00 PM 58.82 49.82 41.36 65.48 33.08 52.0 Not Reported 6.71 E 6.49 E 7.61 SE No 0.000 No Precipitation 04/16/2019 05:03 AM 04/16/2019 05:08 AM 0.000 0.000 0.000 0.000 0.000 Not Reported Not Reported
04/18/2019 12:05 PM 59.54 50.54 42.26 65.48 33.08 52.0 Not Reported 4.03 E 4.03 E 7.61 SE No 0.000 No Precipitation 04/16/2019 05:03 AM 04/16/2019 05:08 AM 0.000 0.000 0.000 0.000 0.000 Not Reported Not Reported
04/18/2019 12:10 PM 59.36 49.64 40.28 65.48 33.08 49.0 Not Reported 5.59 E 6.49 E 6.49 E No 0.000 No Precipitation 04/16/2019 05:03 AM 04/16/2019 05:08 AM 0.000 0.000 0.000 0.000 0.000 Not Reported Not Reported
04/18/2019 12:15 PM 60.26 51.08 42.80 65.48 33.08 52.0 Not Reported 3.58 E 4.70 E 6.49 E No 0.000 No Precipitation 04/16/2019 05:03 AM 04/16/2019 05:08 AM 0.000 0.000 0.000 0.000 0.000 Not Reported Not Reported
04/18/2019 12:20 PM 60.80 50.72 41.54 65.48 33.08 48.0 Not Reported 4.47 E 5.14 E 6.71 E No 0.000 No Precipitation 04/16/2019 05:03 AM 04/16/2019 05:08 AM 0.000 0.000 0.000 0.000 0.000 Not Reported Not Reported
04/18/2019 12:25 PM 60.62 50.18 40.28 65.48 33.08 46.0 Not Reported 6.04 E 7.83 E 6.71 E No 0.000 No Precipitation 04/16/2019 05:03 AM 04/16/2019 05:08 AM 0.000 0.000 0.000 0.000 0.000 Not Reported Not Reported
04/18/2019 12:30 PM 60.80 50.36 40.46 65.48 33.08 46.0 Not Reported 5.14 E 7.16 SE 7.83 E No 0.000 No Precipitation 04/16/2019 05:03 AM 04/16/2019 05:08 AM 0.000 0.000 0.000 0.000 0.000 Not Reported Not Reported
04/18/2019 12:35 PM 61.16 50.54 40.64 65.48 33.08 46.0 Not Reported 7.61 E 3.36 E 7.83 E No 0.000 No Precipitation 04/16/2019 05:03 AM 04/16/2019 05:08 AM 0.000 0.000 0.000 0.000 0.000 Not Reported Not Reported
04/18/2019 12:40 PM 63.32 51.44 40.28 65.48 33.08 42.0 Not Reported 5.37 E 1.12 NE 10.07 SE No 0.000 No Precipitation 04/16/2019 05:03 AM 04/16/2019 05:08 AM 0.000 0.000 0.000 0.000 0.000 Not Reported Not Reported
04/18/2019 12:45 PM 62.42 51.26 40.82 65.48 33.08 44.0 Not Reported 5.59 E 4.03 NE 10.07 SE No 0.000 No Precipitation 04/16/2019 05:03 AM 04/16/2019 05:08 AM 0.000 0.000 0.000 0.000 0.000 Not Reported Not Reported
04/18/2019 12:50 PM 62.24 51.26 41.18 65.48 33.08 46.0 Not Reported 6.71 E 4.25 E 8.72 NE No 0.000 No Precipitation 04/16/2019 05:03 AM 04/16/2019 05:08 AM 0.000 0.000 0.000 0.000 0.000 Not Reported Not Reported
04/18/2019 12:55 PM 62.60 51.62 41.72 65.48 33.08 46.0 Not Reported 5.37 E 4.47 SE 8.72 NE No 0.000 No Precipitation 04/16/2019 05:03 AM 04/16/2019 05:08 AM 0.000 0.000 0.000 0.000 0.000 Not Reported Not Reported
04/18/2019 01:00 PM 63.32 51.80 41.00 65.48 33.08 43.0 Not Reported 5.37 E 4.25 SE 6.93 E No 0.000 No Precipitation 04/16/2019 05:03 AM 04/16/2019 05:08 AM 0.000 0.000 0.000 0.000 0.000 Not Reported Not Reported
04/18/2019 01:05 PM 62.60 51.26 40.64 65.48 33.08 44.0 Not Reported 5.59 SE 5.82 E 6.93 E No 0.000 No Precipitation 04/16/2019 05:03 AM 04/16/2019 05:08 AM 0.000 0.000 0.000 0.000 0.000 Not Reported Not Reported
04/18/2019 01:10 PM 63.32 53.06 44.06 65.48 33.08 49.0 Not Reported 4.03 E 5.82 E 7.83 E No 0.000 No Precipitation 04/16/2019 05:03 AM 04/16/2019 05:08 AM 0.000 0.000 0.000 0.000 0.000 Not Reported Not Reported
04/18/2019 01:15 PM 63.68 51.80 41.00 65.48 33.08 43.0 Not Reported 4.70 SE 6.71 E 7.83 E No 0.000 No Precipitation 04/16/2019 05:03 AM 04/16/2019 05:08 AM 0.000 0.000 0.000 0.000 0.000 Not Reported Not Reported
04/18/2019 01:20 PM 63.68 52.34 41.90 65.48 33.08 44.0 Not Reported 6.26 E 4.92 E 7.16 E No 0.000 No Precipitation 04/16/2019 05:03 AM 04/16/2019 05:08 AM 0.000 0.000 0.000 0.000 0.000 Not Reported Not Reported
04/18/2019 01:25 PM 64.40 52.70 42.26 65.48 33.08 44.0 Not Reported 4.25 SE 5.14 E 7.16 E No 0.000 No Precipitation 04/16/2019 05:03 AM 04/16/2019 05:08 AM 0.000 0.000 0.000 0.000 0.000 Not Reported Not Reported
04/18/2019 01:30 PM 65.12 52.34 40.64 65.48 33.08 40.0 Not Reported 3.58 E 5.82 E 6.04 E No 0.000 No Precipitation 04/16/2019 05:03 AM 04/16/2019 05:08 AM 0.000 0.000 0.000 0.000 0.000 Not Reported Not Reported
04/18/2019 01:35 PM 65.48 52.88 41.72 65.48 33.08 41.0 Not Reported 3.80 E 4.92 E 6.04 E No 0.000 No Precipitation 04/16/2019 05:03 AM 04/16/2019 05:08 AM 0.000 0.000 0.000 0.000 0.000 Not Reported Not Reported
04/18/2019 01:40 PM 65.66 52.88 41.18 65.48 33.08 41.0 Not Reported 2.68 E 3.13 SE 6.04 E No 0.000 No Precipitation 04/16/2019 05:03 AM 04/16/2019 05:08 AM 0.000 0.000 0.000 0.000 0.000 Not Reported Not Reported
04/18/2019 01:45 PM 66.92 53.42 41.54 65.48 33.08 39.0 Not Reported 4.92 E 3.36 E 6.04 E No 0.000 No Precipitation 04/16/2019 05:03 AM 04/16/2019 05:08 AM 0.000 0.000 0.000 0.000 0.000 Not Reported Not Reported
04/18/2019 01:50 PM 66.74 53.06 40.46 65.48 33.08 38.0 Not Reported 3.13 E 6.26 E 6.04 SE No 0.000 No Precipitation 04/16/2019 05:03 AM 04/16/2019 05:08 AM 0.000 0.000 0.000 0.000 0.000 Not Reported Not Reported
04/18/2019 01:55 PM 66.92 53.06 40.46 65.48 33.08 38.0 Not Reported 4.47 E 2.68 SE 6.04 SE No 0.000 No Precipitation 04/16/2019 05:03 AM 04/16/2019 05:08 AM 0.000 0.000 0.000 0.000 0.000 Not Reported Not Reported
04/18/2019 02:00 PM 68.00 53.60 40.64 65.48 33.08 36.0 Not Reported 4.92 E 2.01 E 6.71 E No 0.000 No Precipitation 04/16/2019 05:03 AM 04/16/2019 05:08 AM 0.000 0.000 0.000 0.000 0.000 Not Reported Not Reported
04/18/2019 02:05 PM 68.00 53.96 41.90 65.48 33.08 38.0 Not Reported 2.46 SE 3.58 E 6.71 E No 0.000 No Precipitation 04/16/2019 05:03 AM 04/16/2019 05:08 AM 0.000 0.000 0.000 0.000 0.000 Not Reported Not Reported
04/18/2019 02:10 PM 68.18 54.14 41.90 65.48 33.08 38.0 Not Reported 3.58 SE 2.68 SE 5.14 SE No 0.000 No Precipitation 04/16/2019 05:03 AM 04/16/2019 05:08 AM 0.000 0.000 0.000 0.000 0.000 Not Reported Not Reported
04/18/2019 02:15 PM 69.26 53.96 40.10 65.48 33.08 34.0 Not Reported 4.03 E 5.82 E 5.14 SE No 0.000 No Precipitation 04/16/2019 05:03 AM 04/16/2019 05:08 AM 0.000 0.000 0.000 0.000 0.000 Not Reported Not Reported
04/18/2019 02:20 PM 69.44 54.32 40.82 65.48 33.08 35.0 Not Reported 3.80 E 4.47 NE 5.82 E No 0.000 No Precipitation 04/16/2019 05:03 AM 04/16/2019 05:08 AM 0.000 0.000 0.000 0.000 0.000 Not Reported Not Reported
04/18/2019 02:25 PM 70.52 55.58 43.16 65.48 33.08 37.0 Not Reported 3.13 E 5.37 E 5.82 E No 0.000 No Precipitation 04/16/2019 05:03 AM 04/16/2019 05:08 AM 0.000 0.000 0.000 0.000 0.000 Not Reported Not Reported
04/18/2019 02:30 PM 70.88 54.86 40.82 65.48 33.08 33.0 Not Reported 3.13 SE 3.36 E 6.26 E No 0.000 No Precipitation 04/16/2019 05:03 AM 04/16/2019 05:08 AM 0.000 0.000 0.000 0.000 0.000 Not Reported Not Reported
04/18/2019 02:35 PM 70.34 55.40 42.80 65.48 33.08 36.0 Not Reported 3.36 E 4.92 E 6.26 E No 0.000 No Precipitation 04/16/2019 05:03 AM 04/16/2019 05:08 AM 0.000 0.000 0.000 0.000 0.000 Not Reported Not Reported
04/18/2019 02:40 PM 69.80 53.96 39.38 65.48 33.08 32.0 Not Reported 3.58 SE 1.57 SE 5.37 E No 0.000 No Precipitation 04/16/2019 05:03 AM 04/16/2019 05:08 AM 0.000 0.000 0.000 0.000 0.000 Not Reported Not Reported
04/18/2019 02:45 PM 71.06 54.68 40.10 65.48 33.08 32.0 Not Reported 2.46 S 3.36 W 5.37 E No 0.000 No Precipitation 04/16/2019 05:03 AM 04/16/2019 05:08 AM 0.000 0.000 0.000 0.000 0.000 Not Reported Not Reported
04/18/2019 02:50 PM 71.78 55.22 40.82 65.48 33.08 32.0 Not Reported 1.12 SW 2.24 NW 3.80 W No 0.000 No Precipitation 04/16/2019 05:03 AM 04/16/2019 05:08 AM 0.000 0.000 0.000 0.000 0.000 Not Reported Not Reported
04/18/2019 02:55 PM 72.50 55.40 40.64 65.48 33.08 31.0 Not Reported 2.01 W 4.70 W 3.80 W No 0.000 No Precipitation 04/16/2019 05:03 AM 04/16/2019 05:08 AM 0.000 0.000 0.000 0.000 0.000 Not Reported Not Reported
04/18/2019 03:00 PM 71.24 54.68 40.10 65.48 33.08 32.0 Not Reported 2.01 S 1.34 NW 4.70 W No 0.000 No Precipitation 04/16/2019 05:03 AM 04/16/2019 05:08 AM 0.000 0.000 0.000 0.000 0.000 Not Reported Not Reported
04/18/2019 03:05 PM 71.96 54.68 39.02 65.48 33.08 30.0 Not Reported 2.91 NW 6.26 NW 4.70 W No 0.000 No Precipitation 04/16/2019 05:03 AM 04/16/2019 05:08 AM 0.000 0.000 0.000 0.000 0.000 Not Reported Not Reported
04/18/2019 03:10 PM 71.24 54.50 39.38 65.48 33.08 31.0 Not Reported 4.25 W 6.49 W 7.38 NW No 0.000 No Precipitation 04/16/2019 05:03 AM 04/16/2019 05:08 AM 0.000 0.000 0.000 0.000 0.000 Not Reported Not Reported
04/18/2019 03:15 PM 70.88 54.14 39.02 65.48 33.08 31.0 Not Reported 6.26 W 4.47 NW 7.38 NW No 0.000 No Precipitation 04/16/2019 05:03 AM 04/16/2019 05:08 AM 0.000 0.000 0.000 0.000 0.000 Not Reported Not Reported
04/18/2019 03:20 PM 71.78 55.22 40.82 65.48 33.08 32.0 Not Reported 6.04 W 5.82 W 7.38 W No 0.000 No Precipitation 04/16/2019 05:03 AM 04/16/2019 05:08 AM 0.000 0.000 0.000 0.000 0.000 Not Reported Not Reported
04/18/2019 03:25 PM 71.96 54.68 39.02 65.48 33.08 30.0 Not Reported 4.25 W 4.03 SW 7.38 W No 0.000 No Precipitation 04/16/2019 05:03 AM 04/16/2019 05:08 AM 0.000 0.000 0.000 0.000 0.000 Not Reported Not Reported
04/18/2019 03:30 PM 72.86 55.94 41.90 65.48 33.08 32.0 Not Reported 4.70 W 0.45 SW 8.50 W No 0.000 No Precipitation 04/16/2019 05:03 AM 04/16/2019 05:08 AM 0.000 0.000 0.000 0.000 0.000 Not Reported Not Reported
04/18/2019 03:35 PM 72.14 54.68 38.84 65.48 33.08 29.0 Not Reported 4.92 NW 4.92 NW 8.50 W No 0.000 No Precipitation 04/16/2019 05:03 AM 04/16/2019 05:08 AM 0.000 0.000 0.000 0.000 0.000 Not Reported Not Reported
04/18/2019 03:40 PM 72.14 54.86 39.38 65.48 33.08 30.0 Not Reported 3.13 NW 4.25 W 6.71 NW No 0.000 No Precipitation 04/16/2019 05:03 AM 04/16/2019 05:08 AM 0.000 0.000 0.000 0.000 0.000 Not Reported Not Reported
04/18/2019 03:45 PM 71.24 54.32 39.02 65.48 33.08 30.0 Not Reported 7.16 SW 7.38 W 6.71 NW No 0.000 No Precipitation 04/16/2019 05:03 AM 04/16/2019 05:08 AM 0.000 0.000 0.000 0.000 0.000 Not Reported Not Reported
04/18/2019 03:50 PM 71.42 54.68 39.92 65.48 33.08 31.0 Not Reported 6.04 W 4.92 W 10.74 SW No 0.000 No Precipitation 04/16/2019 05:03 AM 04/16/2019 05:08 AM 0.000 0.000 0.000 0.000 0.000 Not Reported Not Reported
04/18/2019 03:55 PM 72.14 55.04 39.56 65.48 33.08 30.0 Not Reported 4.25 W 2.24 W 10.74 SW No 0.000 No Precipitation 04/16/2019 05:03 AM 04/16/2019 05:08 AM 0.000 0.000 0.000 0.000 0.000 Not Reported Not Reported
04/18/2019 04:00 PM 72.32 55.04 39.74 65.48 33.08 30.0 Not Reported 5.37 W 4.47 NW 7.16 NW No 0.000 No Precipitation 04/16/2019 05:03 AM 04/16/2019 05:08 AM 0.000 0.000 0.000 0.000 0.000 Not Reported Not Reported
04/18/2019 04:05 PM 72.50 54.86 39.02 65.48 33.08 29.0 Not Reported 4.03 W 10.51 W 7.16 NW No 0.000 No Precipitation 04/16/2019 05:03 AM 04/16/2019 05:08 AM 0.000 0.000 0.000 0.000 0.000 Not Reported Not Reported
04/18/2019 04:10 PM 72.32 54.86 39.20 65.48 33.08 30.0 Not Reported 5.14 NW 7.38 W 10.51 W No 0.000 No Precipitation 04/16/2019 05:03 AM 04/16/2019 05:08 AM 0.000 0.000 0.000 0.000 0.000 Not Reported Not Reported
04/18/2019 04:15 PM 71.78 54.50 38.66 65.48 33.08 29.0 Not Reported 5.37 W 4.25 W 10.51 W No 0.000 No Precipitation 04/16/2019 05:03 AM 04/16/2019 05:08 AM 0.000 0.000 0.000 0.000 0.000 Not Reported Not Reported
04/18/2019 04:20 PM 71.60 54.68 39.56 65.48 33.08 31.0 Not Reported 7.61 W 7.83 NW 11.18 NW No 0.000 No Precipitation 04/16/2019 05:03 AM 04/16/2019 05:08 AM 0.000 0.000 0.000 0.000 0.000 Not Reported Not Reported
04/18/2019 04:25 PM 71.60 54.32 38.30 65.48 33.08 29.0 Not Reported 6.71 W 7.38 SW 11.18 NW No 0.000 No Precipitation 04/16/2019 05:03 AM 04/16/2019 05:08 AM 0.000 0.000 0.000 0.000 0.000 Not Reported Not Reported
04/18/2019 04:30 PM 71.42 54.50 39.20 65.48 33.08 30.0 Not Reported 3.13 W 7.16 W 8.72 SW No 0.000 No Precipitation 04/16/2019 05:03 AM 04/16/2019 05:08 AM 0.000 0.000 0.000 0.000 0.000 Not Reported Not Reported
04/18/2019 04:35 PM 71.60 55.04 40.28 65.48 33.08 32.0 Not Reported 7.61 W 2.24 S 8.72 SW No 0.000 No Precipitation 04/16/2019 05:03 AM 04/16/2019 05:08 AM 0.000 0.000 0.000 0.000 0.000 Not Reported Not Reported
04/18/2019 04:40 PM 72.14 55.22 40.10 65.48 33.08 31.0 Not Reported 4.03 W 6.93 W 9.17 W No 0.000 No Precipitation 04/16/2019 05:03 AM 04/16/2019 05:08 AM 0.000 0.000 0.000 0.000 0.000 Not Reported Not Reported
04/18/2019 04:45 PM 72.32 55.40 40.64 65.48 33.08 31.0 Not Reported 5.37 W 7.38 W 9.17 W No 0.000 No Precipitation 04/16/2019 05:03 AM 04/16/2019 05:08 AM 0.000 0.000 0.000 0.000 0.000 Not Reported Not Reported
04/18/2019 04:50 PM 71.96 55.04 40.10 65.48 33.08 31.0 Not Reported 6.04 NW 7.83 NW 7.38 W No 0.000 No Precipitation 04/16/2019 05:03 AM 04/16/2019 05:08 AM 0.000 0.000 0.000 0.000 0.000 Not Reported Not Reported
04/18/2019 04:55 PM 70.88 54.68 40.10 65.48 33.08 32.0 Not Reported 6.26 W 6.26 W 7.38 W No 0.000 No Precipitation 04/16/2019 05:03 AM 04/16/2019 05:08 AM 0.000 0.000 0.000 0.000 0.000 Not Reported Not Reported
04/18/2019 05:00 PM 70.88 54.14 39.02 65.48 33.08 31.0 Not Reported 6.26 W 7.16 W 9.84 SW No 0.000 No Precipitation 04/16/2019 05:03 AM 04/16/2019 05:08 AM 0.000 0.000 0.000 0.000 0.000 Not Reported Not Reported
04/18/2019 05:05 PM 71.06 54.32 38.84 65.48 33.08 30.0 Not Reported 6.49 W 3.80 NW 9.84 SW No 0.000 No Precipitation 04/16/2019 05:03 AM 04/16/2019 05:08 AM 0.000 0.000 0.000 0.000 0.000 Not Reported Not Reported
04/18/2019 05:10 PM 71.60 54.32 38.48 65.48 33.08 29.0 Not Reported 3.80 NW 7.16 W 9.62 W No 0.000 No Precipitation 04/16/2019 05:03 AM 04/16/2019 05:08 AM 0.000 0.000 0.000 0.000 0.000 Not Reported Not Reported
04/18/2019 05:15 PM 71.60 55.04 38.30 65.48 33.08 29.0 Not Reported 4.47 W 6.26 NW 9.62 W No 0.000 No Precipitation 04/16/2019 05:03 AM 04/16/2019 05:08 AM 0.000 0.000 0.000 0.000 0.000 Not Reported Not Reported
04/18/2019 05:20 PM 71.96 54.86 39.38 65.48 33.08 30.0 Not Reported 6.71 W 0.67 W 9.62 W No 0.000 No Precipitation 04/16/2019 05:03 AM 04/16/2019 05:08 AM 0.000 0.000 0.000 0.000 0.000 Not Reported Not Reported
04/18/2019 05:25 PM 71.78 54.32 38.12 65.48 33.08 29.0 Not Reported 4.47 SW 4.92 W 9.62 W No 0.000 No Precipitation 04/16/2019 05:03 AM 04/16/2019 05:08 AM 0.000 0.000 0.000 0.000 0.000 Not Reported Not Reported
04/18/2019 05:30 PM 71.96 54.32 38.12 65.48 33.08 29.0 Not Reported 5.59 NW 4.25 N 8.28 W No 0.000 No Precipitation 04/16/2019 05:03 AM 04/16/2019 05:08 AM 0.000 0.000 0.000 0.000 0.000 Not Reported Not Reported
04/18/2019 05:35 PM 71.96 53.96 37.04 65.48 33.08 27.0 Not Reported 6.49 NW 4.70 N 8.28 W No 0.000 No Precipitation 04/16/2019 05:03 AM 04/16/2019 05:08 AM 0.000 0.000 0.000 0.000 0.000 Not Reported Not Reported
04/18/2019 05:40 PM 71.78 54.14 37.76 65.48 33.08 28.0 Not Reported 6.04 W 6.71 W 8.05 W No 0.000 No Precipitation 04/16/2019 05:03 AM 04/16/2019 05:08 AM 0.000 0.000 0.000 0.000 0.000 Not Reported Not Reported
04/18/2019 05:45 PM 71.78 54.32 38.30 65.48 33.08 29.0 Not Reported 6.04 W 5.14 NW 8.05 W No 0.000 No Precipitation 04/16/2019 05:03 AM 04/16/2019 05:08 AM 0.000 0.000 0.000 0.000 0.000 Not Reported Not Reported
04/18/2019 05:50 PM 72.68 54.32 37.40 65.48 33.08 27.0 Not Reported 2.68 W 5.14 NW 6.93 W No 0.000 No Precipitation 04/16/2019 05:03 AM 04/16/2019 05:08 AM 0.000 0.000 0.000 0.000 0.000 Not Reported Not Reported
04/18/2019 05:55 PM 72.32 54.86 38.84 65.48 33.08 29.0 Not Reported 4.47 NW 2.68 W 6.93 W No 0.000 No Precipitation 04/16/2019 05:03 AM 04/16/2019 05:08 AM 0.000 0.000 0.000 0.000 0.000 Not Reported Not Reported
04/18/2019 06:00 PM 71.96 54.14 37.40 73.22 41.90 28.0 Not Reported 3.80 W 5.82 W 5.14 NW No 0.000 No Precipitation 04/16/2019 05:03 AM 04/16/2019 05:08 AM 0.000 0.000 0.000 0.000 0.000 Not Reported Not Reported
04/18/2019 06:05 PM 71.96 54.68 39.38 73.22 41.90 30.0 Not Reported 4.25 W 2.24 SW 5.14 NW No 0.000 No Precipitation 04/16/2019 05:03 AM 04/16/2019 05:08 AM 0.000 0.000 0.000 0.000 0.000 Not Reported Not Reported
04/18/2019 06:10 PM 71.42 54.86 40.10 73.22 41.90 31.0 Not Reported 5.14 W 3.13 N 8.50 W No 0.000 No Precipitation 04/16/2019 05:03 AM 04/16/2019 05:08 AM 0.000 0.000 0.000 0.000 0.000 Not Reported Not Reported
04/18/2019 06:15 PM 71.78 54.86 39.74 73.22 41.90 31.0 Not Reported 4.03 W 2.68 W 8.50 W No 0.000 No Precipitation 04/16/2019 05:03 AM 04/16/2019 05:08 AM 0.000 0.000 0.000 0.000 0.000 Not Reported Not Reported
04/18/2019 06:20 PM 71.42 54.32 38.66 73.22 41.90 30.0 Not Reported 3.36 W 3.80 SW 4.92 SW No 0.000 No Precipitation 04/16/2019 05:03 AM 04/16/2019 05:08 AM 0.000 0.000 0.000 0.000 0.000 Not Reported Not Reported
04/18/2019 06:25 PM 70.88 54.32 39.38 73.22 41.90 31.0 Not Reported 7.38 W 5.14 W 4.92 SW No 0.000 No Precipitation 04/16/2019 05:03 AM 04/16/2019 05:08 AM 0.000 0.000 0.000 0.000 0.000 Not Reported Not Reported
04/18/2019 06:30 PM 70.70 54.14 39.20 73.22 41.90 31.0 Not Reported 6.93 W 4.70 SW 8.72 W No 0.000 No Precipitation 04/16/2019 05:03 AM 04/16/2019 05:08 AM 0.000 0.000 0.000 0.000 0.000 Not Reported Not Reported
04/18/2019 06:35 PM 71.42 55.40 41.54 73.22 41.90 33.0 Not Reported 4.47 W 1.12 NW 8.72 W No 0.000 No Precipitation 04/16/2019 05:03 AM 04/16/2019 05:08 AM 0.000 0.000 0.000 0.000 0.000 Not Reported Not Reported
04/18/2019 06:40 PM 71.06 54.50 39.92 73.22 41.90 32.0 Not Reported 4.70 W 4.70 SW 7.16 W No 0.000 No Precipitation 04/16/2019 05:03 AM 04/16/2019 05:08 AM 0.000 0.000 0.000 0.000 0.000 Not Reported Not Reported
04/18/2019 06:45 PM 71.06 54.68 40.10 73.22 41.90 32.0 Not Reported 3.58 W 4.92 W 7.16 W No 0.000 No Precipitation 04/16/2019 05:03 AM 04/16/2019 05:08 AM 0.000 0.000 0.000 0.000 0.000 Not Reported Not Reported
04/18/2019 06:50 PM 71.06 55.04 41.00 73.22 41.90 33.0 Not Reported 4.70 W 4.47 NW 6.93 NW No 0.000 No Precipitation 04/16/2019 05:03 AM 04/16/2019 05:08 AM 0.000 0.000 0.000 0.000 0.000 Not Reported Not Reported
04/18/2019 06:55 PM 70.88 54.68 40.10 73.22 41.90 32.0 Not Reported 3.58 W 5.14 W 6.93 NW No 0.000 No Precipitation 04/16/2019 05:03 AM 04/16/2019 05:08 AM 0.000 0.000 0.000 0.000 0.000 Not Reported Not Reported
04/18/2019 07:00 PM 70.70 54.86 41.00 73.22 41.90 34.0 Not Reported 4.47 NW 4.92 NW 5.82 W No 0.000 No Precipitation 04/16/2019 05:03 AM 04/16/2019 05:08 AM 0.000 0.000 0.000 0.000 0.000 Not Reported Not Reported
04/18/2019 07:05 PM 71.06 55.04 41.00 73.22 41.90 33.0 Not Reported 3.80 W 6.71 W 5.82 W No 0.000 No Precipitation 04/16/2019 05:03 AM 04/16/2019 05:08 AM 0.000 0.000 0.000 0.000 0.000 Not Reported Not Reported
04/18/2019 07:10 PM 70.34 55.04 41.72 73.22 41.90 35.0 Not Reported 5.82 W 5.14 W 7.61 W No 0.000 No Precipitation 04/16/2019 05:03 AM 04/16/2019 05:08 AM 0.000 0.000 0.000 0.000 0.000 Not Reported Not Reported
04/18/2019 07:15 PM 69.98 55.04 42.08 73.22 41.90 35.0 Not Reported 5.59 W 7.61 W 7.61 W No 0.000 No Precipitation 04/16/2019 05:03 AM 04/16/2019 05:08 AM 0.000 0.000 0.000 0.000 0.000 Not Reported Not Reported
04/18/2019 07:20 PM 69.62 54.68 41.90 73.22 41.90 36.0 Not Reported 5.14 W 9.62 W 7.61 W No 0.000 No Precipitation 04/16/2019 05:03 AM 04/16/2019 05:08 AM 0.000 0.000 0.000 0.000 0.000 Not Reported Not Reported
04/18/2019 07:25 PM 69.44 54.86 42.62 73.22 41.90 37.0 Not Reported 5.37 W 6.04 NW 7.61 W No 0.000 No Precipitation 04/16/2019 05:03 AM 04/16/2019 05:08 AM 0.000 0.000 0.000 0.000 0.000 Not Reported Not Reported
04/18/2019 07:30 PM 69.08 54.50 41.90 73.22 41.90 37.0 Not Reported 6.71 W 6.49 W 9.62 W No 0.000 No Precipitation 04/16/2019 05:03 AM 04/16/2019 05:08 AM 0.000 0.000 0.000 0.000 0.000 Not Reported Not Reported
04/18/2019 07:35 PM 69.08 54.86 42.62 73.22 41.90 38.0 Not Reported 4.03 W 4.47 SW 9.62 W No 0.000 No Precipitation 04/16/2019 05:03 AM 04/16/2019 05:08 AM 0.000 0.000 0.000 0.000 0.000 Not Reported Not Reported
04/18/2019 07:40 PM 68.90 55.04 43.52 73.22 41.90 39.0 Not Reported 5.82 W 2.46 W 9.40 SW No 0.000 No Precipitation 04/16/2019 05:03 AM 04/16/2019 05:08 AM 0.000 0.000 0.000 0.000 0.000 Not Reported Not Reported
04/18/2019 07:45 PM 68.54 54.68 42.80 73.22 41.90 39.0 Not Reported 4.92 W 5.14 W 9.40 SW No 0.000 No Precipitation 04/16/2019 05:03 AM 04/16/2019 05:08 AM 0.000 0.000 0.000 0.000 0.000 Not Reported Not Reported
04/18/2019 07:50 PM 68.54 55.04 43.70 73.22 41.90 40.0 Not Reported 5.14 W 4.47 W 6.26 W No 0.000 No Precipitation 04/16/2019 05:03 AM 04/16/2019 05:08 AM 0.000 0.000 0.000 0.000 0.000 Not Reported Not Reported
04/18/2019 07:55 PM 68.18 55.04 44.06 73.22 41.90 41.0 Not Reported 4.92 W 4.47 SW 6.26 W No 0.000 No Precipitation 04/16/2019 05:03 AM 04/16/2019 05:08 AM 0.000 0.000 0.000 0.000 0.000 Not Reported Not Reported
04/18/2019 08:00 PM 67.64 55.04 44.42 73.22 41.90 42.0 Not Reported 4.03 W 4.92 W 5.37 W No 0.000 No Precipitation 04/16/2019 05:03 AM 04/16/2019 05:08 AM 0.000 0.000 0.000 0.000 0.000 Not Reported Not Reported
04/18/2019 08:05 PM 66.92 55.04 45.32 73.22 41.90 45.0 Not Reported 3.58 W 3.36 W 5.37 W No 0.000 No Precipitation 04/16/2019 05:03 AM 04/16/2019 05:08 AM 0.000 0.000 0.000 0.000 0.000 Not Reported Not Reported
04/18/2019 08:10 PM 66.20 54.68 45.32 73.22 41.90 46.0 Not Reported 3.58 W 2.91 W 6.71 SW No 0.000 No Precipitation 04/16/2019 05:03 AM 04/16/2019 05:08 AM 0.000 0.000 0.000 0.000 0.000 Not Reported Not Reported
04/18/2019 08:15 PM 65.66 54.68 45.86 73.22 41.90 48.0 Not Reported 2.46 W 2.24 W 6.71 SW No 0.000 No Precipitation 04/16/2019 05:03 AM 04/16/2019 05:08 AM 0.000 0.000 0.000 0.000 0.000 Not Reported Not Reported
04/18/2019 08:20 PM 64.94 54.68 46.40 73.22 41.90 51.0 Not Reported 2.68 W 3.13 W 3.13 W No 0.000 No Precipitation 04/16/2019 05:03 AM 04/16/2019 05:08 AM 0.000 0.000 0.000 0.000 0.000 Not Reported Not Reported
04/18/2019 08:25 PM 64.22 54.50 46.76 73.22 41.90 53.0 Not Reported 2.68 W 2.68 W 3.13 W No 0.000 No Precipitation 04/16/2019 05:03 AM 04/16/2019 05:08 AM 0.000 0.000 0.000 0.000 0.000 Not Reported Not Reported
04/18/2019 08:30 PM 63.32 54.32 46.94 73.22 41.90 54.0 Not Reported 2.46 W 2.91 W 3.13 W No 0.000 No Precipitation 04/16/2019 05:03 AM 04/16/2019 05:08 AM 0.000 0.000 0.000 0.000 0.000 Not Reported Not Reported
04/18/2019 08:35 PM 61.52 53.60 47.12 73.22 41.90 58.0 Not Reported 2.68 W 2.91 W 3.13 W No 0.000 No Precipitation 04/16/2019 05:03 AM 04/16/2019 05:08 AM 0.000 0.000 0.000 0.000 0.000 Not Reported Not Reported
04/18/2019 08:40 PM 60.08 53.06 47.48 73.22 41.90 63.0 Not Reported 3.13 W 3.13 W 3.36 W No 0.000 No Precipitation 04/16/2019 05:03 AM 04/16/2019 05:08 AM 0.000 0.000 0.000 0.000 0.000 Not Reported Not Reported
04/18/2019 08:45 PM 59.18 53.06 48.02 73.22 41.90 66.0 Not Reported 3.36 W 3.13 W 3.36 W No 0.000 No Precipitation 04/16/2019 05:03 AM 04/16/2019 05:08 AM 0.000 0.000 0.000 0.000 0.000 Not Reported Not Reported
04/18/2019 08:50 PM 58.46 52.70 48.02 73.22 41.90 68.0 Not Reported 3.58 W 2.91 W 4.03 W No 0.000 No Precipitation 04/16/2019 05:03 AM 04/16/2019 05:08 AM 0.000 0.000 0.000 0.000 0.000 Not Reported Not Reported
04/18/2019 08:55 PM 57.92 52.52 48.02 73.22 41.90 69.0 Not Reported 2.68 W 3.36 W 4.03 W No 0.000 No Precipitation 04/16/2019 05:03 AM 04/16/2019 05:08 AM 0.000 0.000 0.000 0.000 0.000 Not Reported Not Reported
04/18/2019 09:00 PM 56.84 51.80 47.66 73.22 41.90 71.0 Not Reported 3.36 W 3.80 W 3.36 W No 0.000 No Precipitation 04/16/2019 05:03 AM 04/16/2019 05:08 AM 0.000 0.000 0.000 0.000 0.000 Not Reported Not Reported
04/18/2019 09:05 PM 56.12 51.44 47.66 73.22 41.90 73.0 Not Reported 4.47 W 4.25 W 3.36 W No 0.000 No Precipitation 04/16/2019 05:03 AM 04/16/2019 05:08 AM 0.000 0.000 0.000 0.000 0.000 Not Reported Not Reported
04/18/2019 09:10 PM 55.58 51.08 47.30 73.22 41.90 73.0 Not Reported 3.80 W 3.13 NW 4.47 W No 0.000 No Precipitation 04/16/2019 05:03 AM 04/16/2019 05:08 AM 0.000 0.000 0.000 0.000 0.000 Not Reported Not Reported
04/18/2019 09:15 PM 55.04 50.72 47.12 73.22 41.90 74.0 Not Reported 4.03 W 3.58 W 4.47 W No 0.000 No Precipitation 04/16/2019 05:03 AM 04/16/2019 05:08 AM 0.000 0.000 0.000 0.000 0.000 Not Reported Not Reported
04/18/2019 09:20 PM 54.32 50.36 47.12 73.22 41.90 76.0 Not Reported 4.25 W 3.13 W 4.47 W No 0.000 No Precipitation 04/16/2019 05:03 AM 04/16/2019 05:08 AM 0.000 0.000 0.000 0.000 0.000 Not Reported Not Reported
04/18/2019 09:25 PM 53.96 50.18 47.12 73.22 41.90 77.0 Not Reported 2.46 W 2.68 W 4.47 W No 0.000 No Precipitation 04/16/2019 05:03 AM 04/16/2019 05:08 AM 0.000 0.000 0.000 0.000 0.000 Not Reported Not Reported
04/18/2019 09:30 PM 53.78 50.00 46.94 73.22 41.90 77.0 Not Reported 3.36 W 3.13 W 4.03 W No 0.000 No Precipitation 04/16/2019 05:03 AM 04/16/2019 05:08 AM 0.000 0.000 0.000 0.000 0.000 Not Reported Not Reported
04/18/2019 09:35 PM 53.42 49.64 46.40 73.22 41.90 77.0 Not Reported 3.36 W 3.58 W 4.03 W No 0.000 No Precipitation 04/16/2019 05:03 AM 04/16/2019 05:08 AM 0.000 0.000 0.000 0.000 0.000 Not Reported Not Reported
04/18/2019 09:40 PM 53.24 49.46 46.22 73.22 41.90 76.0 Not Reported 3.13 W 3.13 W 3.58 W No 0.000 No Precipitation 04/16/2019 05:03 AM 04/16/2019 05:08 AM 0.000 0.000 0.000 0.000 0.000 Not Reported Not Reported
04/18/2019 09:45 PM 52.88 49.10 45.86 73.22 41.90 76.0 Not Reported 3.80 W 3.36 W 3.58 W No 0.000 No Precipitation 04/16/2019 05:03 AM 04/16/2019 05:08 AM 0.000 0.000 0.000 0.000 0.000 Not Reported Not Reported
04/18/2019 09:50 PM 52.70 48.92 45.86 73.22 41.90 77.0 Not Reported 3.58 W 3.36 W 3.80 NW No 0.000 No Precipitation 04/16/2019 05:03 AM 04/16/2019 05:08 AM 0.000 0.000 0.000 0.000 0.000 Not Reported Not Reported
04/18/2019 09:55 PM 52.52 48.92 45.50 73.22 41.90 76.0 Not Reported 3.13 W 3.80 W 3.80 NW No 0.000 No Precipitation 04/16/2019 05:03 AM 04/16/2019 05:08 AM 0.000 0.000 0.000 0.000 0.000 Not Reported Not Reported
04/18/2019 10:00 PM 52.16 48.74 45.14 73.22 41.90 76.0 Not Reported 3.36 W 3.13 W 4.03 W No 0.000 No Precipitation 04/16/2019 05:03 AM 04/16/2019 05:08 AM 0.000 0.000 0.000 0.000 0.000 Not Reported Not Reported
04/18/2019 10:05 PM 52.52 48.92 45.68 73.22 41.90 77.0 Not Reported 2.68 NW 2.68 NW 4.03 W No 0.000 No Precipitation 04/16/2019 05:03 AM 04/16/2019 05:08 AM 0.000 0.000 0.000 0.000 0.000 Not Reported Not Reported
04/18/2019 10:10 PM 51.80 48.20 44.96 73.22 41.90 77.0 Not Reported 2.91 W 3.80 W 3.36 W No 0.000 No Precipitation 04/16/2019 05:03 AM 04/16/2019 05:08 AM 0.000 0.000 0.000 0.000 0.000 Not Reported Not Reported
04/18/2019 10:15 PM 51.62 48.02 44.96 73.22 41.90 77.0 Not Reported 3.13 W 2.91 W 3.36 W No 0.000 No Precipitation 04/16/2019 05:03 AM 04/16/2019 05:08 AM 0.000 0.000 0.000 0.000 0.000 Not Reported Not Reported
04/18/2019 10:20 PM 51.08 47.66 44.60 73.22 41.90 78.0 Not Reported 3.36 W 3.13 NW 3.80 W No 0.000 No Precipitation 04/16/2019 05:03 AM 04/16/2019 05:08 AM 0.000 0.000 0.000 0.000 0.000 Not Reported Not Reported
04/18/2019 10:25 PM 51.08 47.66 44.42 73.22 41.90 77.0 Not Reported 3.13 W 3.36 W 3.80 W No 0.000 No Precipitation 04/16/2019 05:03 AM 04/16/2019 05:08 AM 0.000 0.000 0.000 0.000 0.000 Not Reported Not Reported
04/18/2019 10:30 PM 51.26 47.66 44.42 73.22 41.90 77.0 Not Reported 3.36 NW 3.58 W 3.80 W No 0.000 No Precipitation 04/16/2019 05:03 AM 04/16/2019 05:08 AM 0.000 0.000 0.000 0.000 0.000 Not Reported Not Reported
04/18/2019 10:35 PM 51.08 47.84 44.96 73.22 41.90 79.0 Not Reported 3.13 NW 3.13 W 3.80 W No 0.000 No Precipitation 04/16/2019 05:03 AM 04/16/2019 05:08 AM 0.000 0.000 0.000 0.000 0.000 Not Reported Not Reported
04/18/2019 10:40 PM 50.54 47.12 44.06 73.22 41.90 78.0 Not Reported 2.68 NW 3.36 W 3.80 W No 0.000 No Precipitation 04/16/2019 05:03 AM 04/16/2019 05:08 AM 0.000 0.000 0.000 0.000 0.000 Not Reported Not Reported
04/18/2019 10:45 PM 50.36 47.12 44.24 73.22 41.90 79.0 Not Reported 2.91 NW 2.46 W 3.80 W No 0.000 No Precipitation 04/16/2019 05:03 AM 04/16/2019 05:08 AM 0.000 0.000 0.000 0.000 0.000 Not Reported Not Reported
04/18/2019 10:50 PM 50.18 46.94 43.88 73.22 41.90 78.0 Not Reported 2.68 W 2.91 W 4.03 W No 0.000 No Precipitation 04/16/2019 05:03 AM 04/16/2019 05:08 AM 0.000 0.000 0.000 0.000 0.000 Not Reported Not Reported
04/18/2019 10:55 PM 50.00 46.94 43.88 73.22 41.90 79.0 Not Reported 2.68 W 2.46 W 4.03 W No 0.000 No Precipitation 04/16/2019 05:03 AM 04/16/2019 05:08 AM 0.000 0.000 0.000 0.000 0.000 Not Reported Not Reported
04/18/2019 11:00 PM 50.00 46.94 44.06 73.22 41.90 79.0 Not Reported 3.13 W 3.58 W 3.80 NW No 0.000 No Precipitation 04/16/2019 05:03 AM 04/16/2019 05:08 AM 0.000 0.000 0.000 0.000 0.000 Not Reported Not Reported
04/18/2019 11:05 PM 49.46 46.58 43.52 73.22 41.90 79.0 Not Reported 3.36 W 3.13 W 3.80 NW No 0.000 No Precipitation 04/16/2019 05:03 AM 04/16/2019 05:08 AM 0.000 0.000 0.000 0.000 0.000 Not Reported Not Reported
04/18/2019 11:10 PM 49.10 46.22 43.52 73.22 41.90 80.0 Not Reported 2.68 NW 2.68 NW 3.80 W No 0.000 No Precipitation 04/16/2019 05:03 AM 04/16/2019 05:08 AM 0.000 0.000 0.000 0.000 0.000 Not Reported Not Reported
04/18/2019 11:15 PM 48.74 45.86 43.16 73.22 41.90 81.0 Not Reported 2.91 W 2.68 NW 3.80 W No 0.000 No Precipitation 04/16/2019 05:03 AM 04/16/2019 05:08 AM 0.000 0.000 0.000 0.000 0.000 Not Reported Not Reported
04/18/2019 11:20 PM 48.38 45.68 42.98 73.22 41.90 81.0 Not Reported 2.68 NW 2.68 W 3.13 NW No 0.000 No Precipitation 04/16/2019 05:03 AM 04/16/2019 05:08 AM 0.000 0.000 0.000 0.000 0.000 Not Reported Not Reported
04/18/2019 11:25 PM 48.38 45.68 42.98 73.22 41.90 81.0 Not Reported 2.46 W 2.46 NW 3.13 NW No 0.000 No Precipitation 04/16/2019 05:03 AM 04/16/2019 05:08 AM 0.000 0.000 0.000 0.000 0.000 Not Reported Not Reported
04/18/2019 11:30 PM 48.56 45.86 43.16 73.22 41.90 81.0 Not Reported 2.68 W 2.91 W 2.91 NW No 0.000 No Precipitation 04/16/2019 05:03 AM 04/16/2019 05:08 AM 0.000 0.000 0.000 0.000 0.000 Not Reported Not Reported
04/18/2019 11:35 PM 48.92 45.86 42.80 73.22 41.90 79.0 Not Reported 3.36 W 3.13 NW 2.91 NW No 0.000 No Precipitation 04/16/2019 05:03 AM 04/16/2019 05:08 AM 0.000 0.000 0.000 0.000 0.000 Not Reported Not Reported
04/18/2019 11:40 PM 49.10 45.68 42.26 73.22 41.90 76.0 Not Reported 3.13 W 3.80 NW 3.80 W No 0.000 No Precipitation 04/16/2019 05:03 AM 04/16/2019 05:08 AM 0.000 0.000 0.000 0.000 0.000 Not Reported Not Reported
04/18/2019 11:45 PM 49.46 45.68 41.90 73.22 41.90 74.0 Not Reported 3.58 NW 3.58 W 3.80 W No 0.000 No Precipitation 04/16/2019 05:03 AM 04/16/2019 05:08 AM 0.000 0.000 0.000 0.000 0.000 Not Reported Not Reported
04/18/2019 11:50 PM 49.10 45.32 41.54 73.22 41.90 74.0 Not Reported 3.36 W 3.80 W 4.47 W No 0.000 No Precipitation 04/16/2019 05:03 AM 04/16/2019 05:08 AM 0.000 0.000 0.000 0.000 0.000 Not Reported Not Reported
04/18/2019 11:55 PM 48.56 45.14 41.54 73.22 41.90 76.0 Not Reported 3.36 W 2.91 NW 4.47 W No 0.000 No Precipitation 04/16/2019 05:03 AM 04/16/2019 05:08 AM 0.000 0.000 0.000 0.000 0.000 Not Reported Not Reported